Terminal Aerodrome Forecast
Issued by NWS

Home | Current Version | Previous Version | Text Only | Print | Product List | Glossary On
Versions: 1 2 3 4 5 6 7 8 9 10 11 12 13 14 15 16 17 18 19 20 21 22 23 24 25 26 27 28 29 30 31 32 33 34 35 36 37 38 39 40 41 42 43 44 45 46 47 48 49 50
000
FTAK31 PANC 070202 AAB
TAFASD
TAF AMD
PASD 070202Z 0702/0724 19015KT 6SM -RA BR OVC015
      TEMPO 0702/0706 2SM -RA BR BKN007
     FM070600 19015KT 3SM -RA BR OVC008
     FM071500 31008KT P6SM -SHRA FEW009 OVC015
      AMD LTD TO CLD VIS AND WIND=

USA.gov is the U.S. government's official web portal to all federal, state and local government web resources and services.